Home   Weather   Herat   Past weeks

Flag for Afghanistan Past Weather in Herat, Afghanistan — Yesterday and Last 2 Weeks

Now
45 °F

Partly sunny.


Feels Like: 45 °F
Forecast: 32 / 59 °F
Wind: 1 mph from Southeast

Location: Herat Airport

Current Time: Dec 10, 2016 at 1:33:12 pm

Latest Report: Dec 10, 2016 at 12:25 pm


Visibility: 6 mi

Pressure: 30.12 "Hg (26.87 "Hg at 937m altitude)

Humidity: 71%

Dew Point: 36 °F

Location of HeratLocation

Past Weather in Herat — Graph

°F

Herat Temperature Yesterday

Maximum temperature yesterday: 48 °F (at 10:25 am)
Minimum temperature yesterday: 37 °F (at 8:28 pm)
Average temperature yesterday: 43 °F

High & Low Weather Summary for the Past Weeks

 TemperatureHumidityPressure
High81 °F (Dec 6, 1:25 pm)93% (Nov 25, 3:25 pm)30.51 "Hg (Nov 25, 3:25 pm)
Low10 °F (Nov 26, 6:25 am)16% (Dec 2, 4:24 pm)29.92 "Hg (Dec 9, 2:25 pm)
Average50 °F55%30.22 "Hg
* Reported Nov 25 12:25 pm — Dec 10 12:25 pm, Herat, Weather by CustomWeather, © 2016

Note: Actual official high and low records may vary slightly from our data, if they occured in-between our weather recording intervals... More about our weather records

Advertising

Herat Weather History for the Previous 24 Hours

Scroll right to see more
 ConditionsComfort  
Time TempWeatherWind HumidityBarometerVisibility
12:25 pm
Sat, Dec 10
45 °FPartly sunny.1 mph71%30.12 "Hg6 mi
11:25 am41 °FOvercast.3 mph76%30.12 "Hg5 mi
10:25 am39 °FOvercast.7 mph75%30.12 "Hg5 mi
9:25 am36 °FOvercast.No wind81%30.12 "Hg5 mi
8:25 am36 °FOvercast.No wind75%30.09 "Hg5 mi
7:25 am36 °FOvercast.2 mph75%30.07 "Hg5 mi
6:25 am37 °FOvercast.3 mph81%30.07 "Hg5 mi
10:25 pm
Fri, Dec 9
37 °FLight snow. Overcast.6 mph87%30.04 "Hg3 mi
9:25 pm39 °FPartly cloudy.No wind81%30.04 "HgN/A
8:28 pm37 °FPassing clouds.10 mph81%30.04 "HgN/A
7:25 pm39 °FPassing clouds.18 mph70%30.04 "HgN/A
6:25 pm41 °FPassing clouds.10 mph70%29.98 "HgN/A
5:25 pm43 °FPartly sunny.12 mph61%29.98 "HgN/A
4:25 pm43 °FScattered clouds.14 mph66%29.95 "HgN/A
3:25 pm46 °FPassing clouds.13 mph66%29.95 "HgN/A
2:25 pm46 °FPassing clouds.13 mph66%29.92 "HgN/A
1:25 pm43 °FPartly sunny.10 mph81%29.95 "HgN/A
Weather by CustomWeather, © 2016

See weather overviewHow to use our weather pages